Torna al catalogo

CZ-6A DEB

AttivoSSO
NORAD 56276·DEBRIS·🇨🇳 China

Lanciato Nov 11, 2022 da Taiyuan Satellite Launch Center

Loading…

Prossimi Passaggi (prossime 24 ore)

TLE

AggiornatoSource: Space-Track

Epoca: Sep 14, 2026, 00:04 UTC

1 56276U 22151ACU 26257.00330161  .00000492  00000-0  24740-3 0  9998
2 56276  98.7770 272.3261 0010075  61.4811 298.7379 14.20945169180839

Traccia CZ-6A DEB in tempo reale con AllMySat

Download on the App Store